Regional Weather Roundup
Issued by NWS

Home | Current Version | Previous Version | Text Only | Print | Product List | Glossary Off
Versions: 1 2 3 4 5 6 7 8 9 10 11 12 13 14 15 16 17 18 19 20 21 22 23 24 25 26 27 28 29 30 31 32 33 34 35 36 37 38 39 40 41 42 43 44 45 46 47 48 49 50

000
ASUS45 KPSR 270200
RWRAZ

ARIZONA HOURLY REGIONAL WEATHER ROUNDUP
NATIONAL WEATHER SERVICE PHOENIX AZ
700 PM MST TUE MAY 26 2015

NOTE: FAIR INDICATES FEW OR NO CLOUDS BELOW 12,000 FEET WITH NO
SIGNIFICANT WEATHER AND/OR OBSTRUCTIONS TO VISIBILITY.

AZZ001>003-036-270300-
NORTHWEST ARIZONA

CITY           SKY/WX    TMP DP  RH WIND       PRES   REMARKS
KINGMAN        PTCLDY    78  18  10 SW15      29.95R
$$

AZZ004>008-015-016-018-270300-
NORTH CENTRAL ARIZONA

CITY           SKY/WX    TMP DP  RH WIND       PRES   REMARKS
GRAND CANYON   MOCLDY    65  30  27 SW12      30.12R
WILLIAMS       PTCLDY    63  28  27 SW12      30.21R
PRESCOTT       PTCLDY    71  29  21 SW10      30.06R
FLAGSTAFF      NOT AVBL
PAYSON         MOCLDY    72  28  20 VRB6G12   30.09S
PAGE           MOCLDY    76  41  28 N10       29.96S
$$

AZZ009>014-017-270300-
NORTHEAST ARIZONA

CITY           SKY/WX    TMP DP  RH WIND       PRES   REMARKS
WINSLOW        NOT AVBL
SAINT JOHNS    PTCLDY    73  25  16 SW13      30.05R
WINDOW ROCK    PTCLDY    67  32  27 W7        30.12R
$$

AZZ023-270300-
GREATER PHOENIX AREA

CITY           SKY/WX    TMP DP  RH WIND       PRES   REMARKS
PHOENIX        MOCLDY    92  34  13 NW7G17    29.81S
GLENDALE       MOCLDY    91  36  14 W5        29.83S
LUKE AFB       PTCLDY    90  39  16 N3        29.81S
DEER VALLEY    MOCLDY    88  31  13 W6        29.84S
SCOTTSDALE     MOCLDY    89  34  14 CALM      29.85S
MESA-FALCON    MOCLDY    88  37  16 W7        29.83S
MESA-GATEWAY   MOCLDY    90  37  15 NW5       29.85S
CHANDLER       MOCLDY    90  37  15 NW7       29.82S
$$

AZZ027-028-270300-
SOUTHWEST MARICOPA COUNTY AND PINAL COUNTY

CITY           SKY/WX    TMP DP  RH WIND       PRES   REMARKS
CASA GRANDE    CLEAR     90  37  15 N8        29.82S
$$

AZZ503-504-507>509-270300-
SOUTHEAST ARIZONA

CITY           SKY/WX    TMP DP  RH WIND       PRES   REMARKS
TUCSON         CLEAR     89  24   9 SW10      29.91S
DAVIS-MONTHAN  CLEAR     88  22   9 W9        29.89S
RYAN FIELD       N/A     90  28  11 W7        29.90
NOGALES        CLEAR     80  19  10 SW12      30.00S
SIERRA VISTA   CLEAR     79  19  11 SW9G16    30.05R
SAFFORD        PTCLDY    85  29  13 NW7       29.89R
$$

AZZ020-021-025-026-031-270300-
SOUTHWEST ARIZONA

CITY           SKY/WX    TMP DP  RH WIND       PRES   REMARKS
YUMA           MOCLDY    89  40  17 S12       29.80S
$$

CAZ031-033-041-043-047-048-061-270300-
SOUTHERN CALIFORNIA

CITY           SKY/WX    TMP DP  RH WIND       PRES   REMARKS
DOWNTOWN L.A.  MOCLDY    63  54  72 W8        29.96S
L.A. AIRPORT   MOCLDY    60  55  83 W14       29.98R
SAN DIEGO      CLOUDY    64  55  72 NW7       30.00R
BURBANK        MOCLDY    64  53  67 S10       29.94S
ONTARIO        CLOUDY    68  53  58 SW16      29.94R
RIVERSIDE      MOCLDY    69  54  58 W12G20    29.94R
PALM SPRINGS   MOCLDY    88  47  24 NW13      29.81S
EL CENTRO NAS  MOCLDY    89  46  22 SE12      29.78S
IMPERIAL       PTCLDY    90  44  20 SE14      29.76S
BLYTHE         MOCLDY    90  41  18 S13       29.78S
$$

NVZ020-UTZ003-270300-
SOUTHERN NEVADA-UTAH

CITY           SKY/WX    TMP DP  RH WIND       PRES   REMARKS
LAS VEGAS      NOT AVBL
SALT LAKE CITY CLOUDY    62  49  62 S6        30.02R
$$

NMZ009-TXZ055-270300-
NEW MEXICO-WEST TEXAS

CITY           SKY/WX    TMP DP  RH WIND       PRES   REMARKS
ALBUQUERQUE    PTCLDY    73  38  27 S5        30.05S
EL PASO        MOCLDY    82  24  12 SW3       29.98R
$$


........................KEY........................
SKY/WX - SKY CONDITION/WEATHER
TMP    - TEMPERATURE IN FAHRENHEIT
DP     - DEW POINT IN FAHRENHEIT
RH     - RELATIVE HUMIDITY IN PERCENT
WIND   - DIRECTION AND SPEED IN MILES PER HOUR (MPH)
VRB    - VARIABLE WIND DIRECTION
PRES   - MEAN SEA LEVEL PRESSURE IN INCHES OF MERCURY
         F - FALLING PRESSURE   R - RISING PRESSURE
         S - STEADY PRESSURE
VSB    - VISIBILITY IN MILES
HX     - HEAT INDEX IN FAHRENHEIT
WCI    - WIND CHILL INDEX IN FAHRENHEIT
TC     - TEMPERATURE IN CELSIUS WHICH IS ALSO KNOWN AS
         TEMPERATURE IN CENTIGRADE
AFB    - AIR FORCE BASE
         LUKE AFB IS LUKE AIR FORCE BASE
         DAVIS-MONTHAN IS DAVIS-MONTHAN AIR FORCE BASE
NAS    - NAVAL AIR STATION
         EL CENTRO NAS IS EL CENTRO NAVAL AIR STATION
N/A    - NOT AVAILABLE




USA.gov is the U.S. government's official web portal to all federal, state and local government web resources and services.